<?xml version="1.0" encoding="UTF-8" standalone="no" ?><gpx xmlns="http://www.topografix.com/GPX/1/1" xmlns:gpxx="http://www.garmin.com/xmlschemas/GpxExtensions/v3" xmlns:wptx1="http://www.garmin.com/xmlschemas/WaypointExtension/v1" xmlns:gpxtpx="http://www.garmin.com/xmlschemas/TrackPointExtension/v1" creator="GuideVTT.com" version="1.1" xmlns:xsi="http://www.w3.org/2001/XMLSchema-instance" xsi:schemaLocation="http://www.topografix.com/GPX/1/1 http://www.topografix.com/GPX/1/1/gpx.xsd http://www.garmin.com/xmlschemas/GpxExtensions/v3 http://www8.garmin.com/xmlschemas/GpxExtensionsv3.xsd http://www.garmin.com/xmlschemas/WaypointExtension/v1 http://www8.garmin.com/xmlschemas/WaypointExtensionv1.xsd http://www.garmin.com/xmlschemas/TrackPointExtension/v1 http://www.garmin.com/xmlschemas/TrackPointExtensionv1.xsd">
<metadata><link href="http://www.garmin.com"><text>Garmin International</text></link><time>2013-06-22T15:13:50Z</time></metadata>
<trk><name>trail_2008_08_23_13_08mod.gpx</name><extensions><gpxx:TrackExtension><gpxx:DisplayColor>Cyan</gpxx:DisplayColor></gpxx:TrackExtension></extensions><trkseg>
<trkpt lat="46.24602945" lon="7.01333815"><ele>483.732788</ele><time>2008-09-08T21:35:22Z</time></trkpt>
<trkpt lat="46.24624890" lon="7.01220432"><ele>481.733185</ele><time>2008-09-08T21:35:22Z</time></trkpt>
<trkpt lat="46.24595581" lon="7.00898187"><ele>474.736511</ele><time>2008-09-08T21:35:22Z</time></trkpt>
<trkpt lat="46.24639802" lon="7.00760612"><ele>471.736572</ele><time>2008-09-08T21:35:22Z</time></trkpt>
<trkpt lat="46.24757098" lon="7.00686950"><ele>466.734344</ele><time>2008-09-08T21:35:22Z</time></trkpt>
<trkpt lat="46.24501411" lon="6.99687953"><ele>454.748627</ele><time>2008-09-08T21:35:22Z</time></trkpt>
<trkpt lat="46.24421217" lon="6.99268714"><ele>451.753937</ele><time>2008-09-08T21:35:22Z</time></trkpt>
<trkpt lat="46.24285893" lon="6.98995394"><ele>449.75943</ele><time>2008-09-08T21:35:22Z</time></trkpt>
<trkpt lat="46.23939942" lon="6.99385864"><ele>449.764587</ele><time>2008-09-08T21:35:22Z</time></trkpt>
<trkpt lat="46.23711108" lon="6.99540719"><ele>450.76886</ele><time>2008-09-08T21:35:22Z</time></trkpt>
<trkpt lat="46.23616098" lon="6.99590200"><ele>451.770721</ele><time>2008-09-08T21:35:22Z</time></trkpt>
<trkpt lat="46.23575996" lon="6.99621397"><ele>451.771454</ele><time>2008-09-08T21:35:22Z</time></trkpt>
<trkpt lat="46.23429438" lon="6.99514894"><ele>455.775848</ele><time>2008-09-08T21:35:22Z</time></trkpt>
<trkpt lat="46.23286943" lon="6.99594257"><ele>459.778625</ele><time>2008-09-08T21:35:22Z</time></trkpt>
<trkpt lat="46.23083952" lon="6.99845933"><ele>463.781464</ele><time>2008-09-08T21:35:22Z</time></trkpt>
<trkpt lat="46.22955250" lon="6.99984159"><ele>466.783447</ele><time>2008-09-08T21:35:22Z</time></trkpt>
<trkpt lat="46.22836458" lon="7.00038962"><ele>494.785858</ele><time>2008-09-08T21:35:22Z</time></trkpt>
<trkpt lat="46.22669988" lon="7.00074599"><ele>471.789581</ele><time>2008-09-08T21:35:22Z</time></trkpt>
<trkpt lat="46.22544178" lon="7.00099962"><ele>498.792389</ele><time>2008-09-08T21:35:22Z</time></trkpt>
<trkpt lat="46.22503878" lon="7.00203165"><ele>466.792511</ele><time>2008-09-08T21:35:22Z</time></trkpt>
<trkpt lat="46.22334103" lon="7.00307405"><ele>476.795746</ele><time>2008-09-08T21:35:22Z</time></trkpt>
<trkpt lat="46.22168104" lon="7.00465445"><ele>464.798462</ele><time>2008-09-08T21:35:22Z</time></trkpt>
<trkpt lat="46.22069401" lon="7.00422343"><ele>482.801178</ele><time>2008-09-08T21:35:22Z</time></trkpt>
<trkpt lat="46.21793879" lon="7.00385458"><ele>467.808105</ele><time>2008-09-08T21:35:22Z</time></trkpt>
<trkpt lat="46.21719107" lon="7.00376114"><ele>466.809967</ele><time>2008-09-08T21:35:22Z</time></trkpt>
<trkpt lat="46.21711560" lon="7.00209536"><ele>471.811523</ele><time>2008-09-08T21:35:22Z</time></trkpt>
<trkpt lat="46.21303811" lon="7.00261841"><ele>477.820892</ele><time>2008-09-08T21:35:22Z</time></trkpt>
<trkpt lat="46.21266206" lon="7.00262143"><ele>475.821777</ele><time>2008-09-08T21:35:22Z</time></trkpt>
<trkpt lat="46.21238485" lon="7.00110484"><ele>482.823669</ele><time>2008-09-08T21:35:22Z</time></trkpt>
<trkpt lat="46.20868613" lon="7.00294475"><ele>489.831055</ele><time>2008-09-08T21:35:22Z</time></trkpt>
<trkpt lat="46.20824420" lon="7.00314371"><ele>488.83197</ele><time>2008-09-08T21:35:22Z</time></trkpt>
<trkpt lat="46.20872550" lon="7.00451114"><ele>480.829712</ele><time>2008-09-08T21:35:22Z</time></trkpt>
<trkpt lat="46.20876479" lon="7.00544331"><ele>476.828857</ele><time>2008-09-08T21:35:22Z</time></trkpt>
<trkpt lat="46.20584797" lon="7.00761940"><ele>465.834076</ele><time>2008-09-08T21:35:22Z</time></trkpt>
<trkpt lat="46.20201853" lon="7.01078625"><ele>470.840698</ele><time>2008-09-08T21:35:22Z</time></trkpt>
<trkpt lat="46.20073451" lon="7.01300040"><ele>478.84198</ele><time>2008-09-08T21:35:22Z</time></trkpt>
<trkpt lat="46.19578339" lon="7.01666542"><ele>512.850891</ele><time>2008-09-08T21:35:22Z</time></trkpt>
<trkpt lat="46.19456352" lon="7.01760371"><ele>524.853027</ele><time>2008-09-08T21:35:22Z</time></trkpt>
<trkpt lat="46.19364538" lon="7.01775820"><ele>533.855103</ele><time>2008-09-08T21:35:22Z</time></trkpt>
<trkpt lat="46.19313660" lon="7.01790952"><ele>536.856201</ele><time>2008-09-08T21:35:22Z</time></trkpt>
<trkpt lat="46.19259029" lon="7.01757103"><ele>542.857788</ele><time>2008-09-08T21:35:22Z</time></trkpt>
<trkpt lat="46.19200882" lon="7.01674273"><ele>550.859863</ele><time>2008-09-08T21:35:22Z</time></trkpt>
<trkpt lat="46.19126094" lon="7.01660117"><ele>556.861755</ele><time>2008-09-08T21:35:22Z</time></trkpt>
<trkpt lat="46.19081659" lon="7.01616252"><ele>561.863159</ele><time>2008-09-08T21:35:22Z</time></trkpt>
<trkpt lat="46.19040796" lon="7.01572704"><ele>565.864502</ele><time>2008-09-08T21:35:22Z</time></trkpt>
<trkpt lat="46.18983218" lon="7.01641693"><ele>568.865356</ele><time>2008-09-08T21:35:22Z</time></trkpt>
<trkpt lat="46.18918444" lon="7.01568858"><ele>577.867493</ele><time>2008-09-08T21:35:22Z</time></trkpt>
<trkpt lat="46.18839901" lon="7.01505728"><ele>587.869873</ele><time>2008-09-08T21:35:22Z</time></trkpt>
<trkpt lat="46.18761522" lon="7.01423066"><ele>599.872437</ele><time>2008-09-08T21:35:22Z</time></trkpt>
<trkpt lat="46.18720031" lon="7.01276376"><ele>606.874634</ele><time>2008-09-08T21:35:22Z</time></trkpt>
<trkpt lat="46.18594199" lon="7.01233500"><ele>623.877991</ele><time>2008-09-08T21:35:22Z</time></trkpt>
<trkpt lat="46.18488504" lon="7.01165794"><ele>638.881042</ele><time>2008-09-08T21:35:22Z</time></trkpt>
<trkpt lat="46.18457597" lon="7.01112238"><ele>646.882263</ele><time>2008-09-08T21:35:22Z</time></trkpt>
<trkpt lat="46.18484544" lon="7.01063023"><ele>656.882019</ele><time>2008-09-08T21:35:22Z</time></trkpt>
<trkpt lat="46.18406441" lon="7.01053701"><ele>660.883911</ele><time>2008-09-08T21:35:22Z</time></trkpt>
<trkpt lat="46.18348363" lon="7.00990423"><ele>660.885864</ele><time>2008-09-08T21:35:22Z</time></trkpt>
<trkpt lat="46.18297113" lon="7.00907561"><ele>676.887756</ele><time>2008-09-08T21:35:22Z</time></trkpt>
<trkpt lat="46.18242480" lon="7.00873727"><ele>680.889343</ele><time>2008-09-08T21:35:22Z</time></trkpt>
<trkpt lat="46.18201930" lon="7.00913110"><ele>680.889954</ele><time>2008-09-08T21:35:22Z</time></trkpt>
<trkpt lat="46.18229267" lon="7.00966692"><ele>675.888916</ele><time>2008-09-08T21:35:22Z</time></trkpt>
<trkpt lat="46.18192088" lon="7.01015985"><ele>691.889404</ele><time>2008-09-08T21:35:22Z</time></trkpt>
<trkpt lat="46.18168530" lon="7.01079905"><ele>703.889404</ele><time>2008-09-08T21:35:22Z</time></trkpt>
<trkpt lat="46.18137995" lon="7.01124347"><ele>708.889771</ele><time>2008-09-08T21:35:22Z</time></trkpt>
<trkpt lat="46.18138217" lon="7.01182939"><ele>696.889282</ele><time>2008-09-08T21:35:22Z</time></trkpt>
<trkpt lat="46.18155557" lon="7.01236599"><ele>690.888428</ele><time>2008-09-08T21:35:22Z</time></trkpt>
<trkpt lat="46.18138680" lon="7.01305262"><ele>704.888306</ele><time>2008-09-08T21:35:22Z</time></trkpt>
<trkpt lat="46.18094964" lon="7.01388869"><ele>714.888672</ele><time>2008-09-08T21:35:22Z</time></trkpt>
<trkpt lat="46.18026895" lon="7.01389401"><ele>726.89032</ele><time>2008-09-08T21:35:22Z</time></trkpt>
<trkpt lat="46.17996248" lon="7.01404375"><ele>735.89093</ele><time>2008-09-08T21:35:22Z</time></trkpt>
<trkpt lat="46.17924865" lon="7.01409729"><ele>736.892578</ele><time>2008-09-08T21:35:22Z</time></trkpt>
<trkpt lat="46.17867286" lon="7.01414976"><ele>735.893921</ele><time>2008-09-08T21:35:22Z</time></trkpt>
<trkpt lat="46.17792315" lon="7.01415562"><ele>741.895691</ele><time>2008-09-08T21:35:22Z</time></trkpt>
<trkpt lat="46.17714249" lon="7.01416172"><ele>751.897583</ele><time>2008-09-08T21:35:22Z</time></trkpt>
<trkpt lat="46.17653082" lon="7.01416650"><ele>758.898987</ele><time>2008-09-08T21:35:22Z</time></trkpt>
<trkpt lat="46.17588345" lon="7.01417155"><ele>756.900574</ele><time>2008-09-08T21:35:22Z</time></trkpt>
<trkpt lat="46.17537247" lon="7.01373700"><ele>783.902161</ele><time>2008-09-08T21:35:22Z</time></trkpt>
<trkpt lat="46.17476136" lon="7.01388910"><ele>788.903503</ele><time>2008-09-08T21:35:22Z</time></trkpt>
<trkpt lat="46.17401109" lon="7.01374765"><ele>788.905396</ele><time>2008-09-08T21:35:22Z</time></trkpt>
<trkpt lat="46.17346789" lon="7.01360458"><ele>793.906799</ele><time>2008-09-08T21:35:22Z</time></trkpt>
<trkpt lat="46.17299262" lon="7.01380358"><ele>809.907776</ele><time>2008-09-08T21:35:22Z</time></trkpt>
<trkpt lat="46.17258436" lon="7.01410140"><ele>800.908508</ele><time>2008-09-08T21:35:22Z</time></trkpt>
<trkpt lat="46.17241297" lon="7.01346551"><ele>800.909424</ele><time>2008-09-08T21:35:22Z</time></trkpt>
<trkpt lat="46.17210392" lon="7.01293006"><ele>806.910645</ele><time>2008-09-08T21:35:22Z</time></trkpt>
<trkpt lat="46.17152628" lon="7.01249264"><ele>841.912354</ele><time>2008-09-08T21:35:22Z</time></trkpt>
<trkpt lat="46.17125424" lon="7.01293671"><ele>823.912659</ele><time>2008-09-08T21:35:22Z</time></trkpt>
<trkpt lat="46.17074473" lon="7.01289274"><ele>820.913879</ele><time>2008-09-08T21:35:22Z</time></trkpt>
<trkpt lat="46.17047212" lon="7.01255230"><ele>828.914856</ele><time>2008-09-08T21:35:22Z</time></trkpt>
<trkpt lat="46.16972241" lon="7.01255818"><ele>845.916626</ele><time>2008-09-08T21:35:22Z</time></trkpt>
<trkpt lat="46.16890991" lon="7.01295508"><ele>844.918213</ele><time>2008-09-08T21:35:22Z</time></trkpt>
<trkpt lat="46.16819663" lon="7.01315593"><ele>838.9198</ele><time>2008-09-08T21:35:22Z</time></trkpt>
<trkpt lat="46.16775691" lon="7.01394385"><ele>843.920166</ele><time>2008-09-08T21:35:22Z</time></trkpt>
<trkpt lat="46.16751891" lon="7.01394571"><ele>854.920776</ele><time>2008-09-08T21:35:22Z</time></trkpt>
<trkpt lat="46.16761902" lon="7.01335572"><ele>860.921021</ele><time>2008-09-08T21:35:22Z</time></trkpt>
<trkpt lat="46.16799177" lon="7.01310958"><ele>849.920288</ele><time>2008-09-08T21:35:22Z</time></trkpt>
<trkpt lat="46.16917883" lon="7.01231579"><ele>872.918091</ele><time>2008-09-08T21:35:22Z</time></trkpt>
<trkpt lat="46.16992394" lon="7.01172413"><ele>881.916809</ele><time>2008-09-08T21:35:22Z</time></trkpt>
<trkpt lat="46.17101051" lon="7.01142097"><ele>888.91449</ele><time>2008-09-08T21:35:22Z</time></trkpt>
<trkpt lat="46.17141987" lon="7.01141775"><ele>889.913513</ele><time>2008-09-08T21:35:22Z</time></trkpt>
<trkpt lat="46.17274519" lon="7.01131141"><ele>893.9104</ele><time>2008-09-08T21:35:22Z</time></trkpt>
<trkpt lat="46.17379974" lon="7.01135108"><ele>910.907837</ele><time>2008-09-08T21:35:22Z</time></trkpt>
<trkpt lat="46.17488704" lon="7.01124318"><ele>920.905334</ele><time>2008-09-08T21:35:22Z</time></trkpt>
<trkpt lat="46.17566677" lon="7.01099379"><ele>923.903687</ele><time>2008-09-08T21:35:22Z</time></trkpt>
<trkpt lat="46.17665449" lon="7.01098602"><ele>935.901306</ele><time>2008-09-08T21:35:22Z</time></trkpt>
<trkpt lat="46.17719676" lon="7.01088239"><ele>935.900085</ele><time>2008-09-08T21:35:22Z</time></trkpt>
<trkpt lat="46.17756764" lon="7.01014624"><ele>942.89978</ele><time>2008-09-08T21:35:22Z</time></trkpt>
<trkpt lat="46.17746395" lon="7.00916715"><ele>953.900879</ele><time>2008-09-08T21:35:22Z</time></trkpt>
<trkpt lat="46.17745779" lon="7.00755342"><ele>963.902161</ele><time>2008-09-08T21:35:22Z</time></trkpt>
<trkpt lat="46.17755399" lon="7.00657274"><ele>969.902771</ele><time>2008-09-08T21:35:22Z</time></trkpt>
<trkpt lat="46.17802775" lon="7.00598307"><ele>972.9021</ele><time>2008-09-08T21:35:22Z</time></trkpt>
<trkpt lat="46.17754986" lon="7.00549692"><ele>981.903625</ele><time>2008-09-08T21:35:22Z</time></trkpt>
<trkpt lat="46.17717470" lon="7.00510932"><ele>985.904846</ele><time>2008-09-08T21:35:22Z</time></trkpt>
<trkpt lat="46.17727363" lon="7.00422455"><ele>993.905334</ele><time>2008-09-08T21:35:22Z</time></trkpt>
<trkpt lat="46.17740779" lon="7.00383289"><ele>995.905334</ele><time>2008-09-08T21:35:22Z</time></trkpt>
<trkpt lat="46.17750767" lon="7.00319480"><ele>1003.905579</ele><time>2008-09-08T21:35:22Z</time></trkpt>
<trkpt lat="46.17777691" lon="7.00265471"><ele>1001.905396</ele><time>2008-09-08T21:35:22Z</time></trkpt>
<trkpt lat="46.17743970" lon="7.00285272"><ele>1013.906067</ele><time>2008-09-08T21:35:22Z</time></trkpt>
<trkpt lat="46.17713439" lon="7.00329715"><ele>1020.906433</ele><time>2008-09-08T21:35:22Z</time></trkpt>
<trkpt lat="46.17696730" lon="7.00378845"><ele>1023.906433</ele><time>2008-09-08T21:35:22Z</time></trkpt>
<trkpt lat="46.17662789" lon="7.00403443"><ele>1031.906982</ele><time>2008-09-08T21:35:22Z</time></trkpt>
<trkpt lat="46.17632258" lon="7.00447885"><ele>1038.907349</ele><time>2008-09-08T21:35:22Z</time></trkpt>
<trkpt lat="46.17615642" lon="7.00521338"><ele>1029.907227</ele><time>2008-09-08T21:35:22Z</time></trkpt>
<trkpt lat="46.17574969" lon="7.00590186"><ele>1047.907593</ele><time>2008-09-08T21:35:22Z</time></trkpt>
<trkpt lat="46.17585372" lon="7.00634301"><ele>1037.906982</ele><time>2008-09-08T21:35:22Z</time></trkpt>
<trkpt lat="46.17626797" lon="7.00761084"><ele>1042.905029</ele><time>2008-09-08T21:35:22Z</time></trkpt>
<trkpt lat="46.17630316" lon="7.00810051"><ele>1052.904541</ele><time>2008-09-08T21:35:22Z</time></trkpt>
<trkpt lat="46.17593137" lon="7.00859340"><ele>1063.905029</ele><time>2008-09-08T21:35:22Z</time></trkpt>
<trkpt lat="46.17562434" lon="7.00859583"><ele>1067.905762</ele><time>2008-09-08T21:35:22Z</time></trkpt>
<trkpt lat="46.17508132" lon="7.00850077"><ele>1065.907104</ele><time>2008-09-08T21:35:22Z</time></trkpt>
<trkpt lat="46.17453536" lon="7.00826184"><ele>1068.908569</ele><time>2008-09-08T21:35:22Z</time></trkpt>
<trkpt lat="46.17402603" lon="7.00826587"><ele>1080.90979</ele><time>2008-09-08T21:35:22Z</time></trkpt>
<trkpt lat="46.17398846" lon="7.00777624"><ele>1095.910278</ele><time>2008-09-08T21:35:22Z</time></trkpt>
<trkpt lat="46.17446428" lon="7.00772450"><ele>1080.90918</ele><time>2008-09-08T21:35:22Z</time></trkpt>
<trkpt lat="46.17507870" lon="7.00781557"><ele>1088.907715</ele><time>2008-09-08T21:35:22Z</time></trkpt>
<trkpt lat="46.17555283" lon="7.00732187"><ele>1088.906982</ele><time>2008-09-08T21:35:22Z</time></trkpt>
<trkpt lat="46.17537961" lon="7.00683673"><ele>1099.907715</ele><time>2008-09-08T21:35:22Z</time></trkpt>
<trkpt lat="46.17534289" lon="7.00595307"><ele>1094.908569</ele><time>2008-09-08T21:35:22Z</time></trkpt>
<trkpt lat="46.17523264" lon="7.00389827"><ele>1125.910522</ele><time>2008-09-08T21:35:22Z</time></trkpt>
<trkpt lat="46.17546459" lon="7.00233067"><ele>1131.911255</ele><time>2008-09-08T21:35:22Z</time></trkpt>
<trkpt lat="46.17549089" lon="7.00052145"><ele>1144.912598</ele><time>2008-09-08T21:35:22Z</time></trkpt>
<trkpt lat="46.17541527" lon="6.99821968"><ele>1154.914673</ele><time>2008-09-08T21:35:22Z</time></trkpt>
<trkpt lat="46.17530929" lon="6.99729206"><ele>1159.915649</ele><time>2008-09-08T21:35:22Z</time></trkpt>
<trkpt lat="46.17499861" lon="6.99636267"><ele>1166.917114</ele><time>2008-09-08T21:35:22Z</time></trkpt>
<trkpt lat="46.17458759" lon="6.99533819"><ele>1176.918945</ele><time>2008-09-08T21:35:22Z</time></trkpt>
<trkpt lat="46.17383254" lon="6.99338807"><ele>1189.922363</ele><time>2008-09-08T21:35:22Z</time></trkpt>
<trkpt lat="46.17345126" lon="6.99206875"><ele>1193.924316</ele><time>2008-09-08T21:35:22Z</time></trkpt>
<trkpt lat="46.17173495" lon="6.98782444"><ele>1225.931885</ele><time>2008-09-08T21:35:22Z</time></trkpt>
<trkpt lat="46.17125345" lon="6.98645807"><ele>1220.934204</ele><time>2008-09-08T21:35:22Z</time></trkpt>
<trkpt lat="46.17060571" lon="6.98577829"><ele>1243.936279</ele><time>2008-09-08T21:35:22Z</time></trkpt>
<trkpt lat="46.17033065" lon="6.98485218"><ele>1238.937622</ele><time>2008-09-08T21:35:22Z</time></trkpt>
<trkpt lat="46.17063351" lon="6.98440772"><ele>1242.937256</ele><time>2008-09-08T21:35:22Z</time></trkpt>
<trkpt lat="46.17080072" lon="6.98337856"><ele>1247.937744</ele><time>2008-09-08T21:35:22Z</time></trkpt>
<trkpt lat="46.17167956" lon="6.98234342"><ele>1237.936523</ele><time>2008-09-08T21:35:22Z</time></trkpt>
<trkpt lat="46.17229361" lon="6.98292753"><ele>1240.93457</ele><time>2008-09-08T21:35:22Z</time></trkpt>
<trkpt lat="46.17284041" lon="6.98336148"><ele>1242.932861</ele><time>2008-09-08T21:35:22Z</time></trkpt>
<trkpt lat="46.17427436" lon="6.98481925"><ele>1220.928223</ele><time>2008-09-08T21:35:22Z</time></trkpt>
<trkpt lat="46.17505915" lon="6.98584054"><ele>1217.925537</ele><time>2008-09-08T21:35:22Z</time></trkpt>
<trkpt lat="46.17604922" lon="6.98641817"><ele>1213.922729</ele><time>2008-09-08T21:35:22Z</time></trkpt>
<trkpt lat="46.17687126" lon="6.98782979"><ele>1192.919556</ele><time>2008-09-08T21:35:22Z</time></trkpt>
<trkpt lat="46.17751743" lon="6.98811909"><ele>1203.917847</ele><time>2008-09-08T21:35:22Z</time></trkpt>
<trkpt lat="46.17837492" lon="6.99007185"><ele>1171.914185</ele><time>2008-09-08T21:35:22Z</time></trkpt>
<trkpt lat="46.17895615" lon="6.99138963"><ele>1187.911743</ele><time>2008-09-08T21:35:22Z</time></trkpt>
<trkpt lat="46.17950293" lon="6.99182714"><ele>1174.910034</ele><time>2008-09-08T21:35:22Z</time></trkpt>
<trkpt lat="46.17987602" lon="6.99167674"><ele>1182.909302</ele><time>2008-09-08T21:35:22Z</time></trkpt>
<trkpt lat="46.18075901" lon="6.99166947"><ele>1167.907227</ele><time>2008-09-08T21:35:22Z</time></trkpt>
<trkpt lat="46.18048827" lon="6.99181904"><ele>1158.907715</ele><time>2008-09-08T21:35:22Z</time></trkpt>
<trkpt lat="46.18049117" lon="6.99255228"><ele>1159.907104</ele><time>2008-09-08T21:35:22Z</time></trkpt>
<trkpt lat="46.18049717" lon="6.99407015"><ele>1157.905884</ele><time>2008-09-08T21:35:22Z</time></trkpt>
<trkpt lat="46.18080632" lon="6.99460559"><ele>1165.904663</ele><time>2008-09-08T21:35:22Z</time></trkpt>
<trkpt lat="46.18155905" lon="6.99597005"><ele>1166.901733</ele><time>2008-09-08T21:35:22Z</time></trkpt>
<trkpt lat="46.18213990" lon="6.99660266"><ele>1162.899902</ele><time>2008-09-08T21:35:22Z</time></trkpt>
<trkpt lat="46.18309671" lon="6.99781819"><ele>1156.896606</ele><time>2008-09-08T21:35:22Z</time></trkpt>
<trkpt lat="46.18422268" lon="6.99908036"><ele>1152.892822</ele><time>2008-09-08T21:35:22Z</time></trkpt>
<trkpt lat="46.18402362" lon="6.99991465"><ele>1139.8927</ele><time>2008-09-08T21:35:22Z</time></trkpt>
<trkpt lat="46.18433151" lon="7.00074486"><ele>1147.891235</ele><time>2008-09-08T21:35:22Z</time></trkpt>
<trkpt lat="46.18487730" lon="7.00093579"><ele>1155.889771</ele><time>2008-09-08T21:35:22Z</time></trkpt>
<trkpt lat="46.18507808" lon="7.00054352"><ele>1161.889648</ele><time>2008-09-08T21:35:22Z</time></trkpt>
<trkpt lat="46.18490795" lon="7.00025019"><ele>1161.890259</ele><time>2008-09-08T21:35:22Z</time></trkpt>
<trkpt lat="46.18480237" lon="6.99941835"><ele>1163.891235</ele><time>2008-09-08T21:35:22Z</time></trkpt>
<trkpt lat="46.18606180" lon="6.99950755"><ele>1183.888062</ele><time>2008-09-08T21:35:22Z</time></trkpt>
<trkpt lat="46.18684379" lon="6.99984391"><ele>1181.885986</ele><time>2008-09-08T21:35:22Z</time></trkpt>
<trkpt lat="46.18769213" lon="6.99949437"><ele>1179.884277</ele><time>2008-09-08T21:35:22Z</time></trkpt>
<trkpt lat="46.18854418" lon="6.99948748"><ele>1175.882202</ele><time>2008-09-08T21:35:22Z</time></trkpt>
<trkpt lat="46.18939386" lon="6.99948061"><ele>1167.880127</ele><time>2008-09-08T21:35:22Z</time></trkpt>
<trkpt lat="46.19061319" lon="6.99844262"><ele>1165.878052</ele><time>2008-09-08T21:35:22Z</time></trkpt>
<trkpt lat="46.19139602" lon="6.99838487"><ele>1154.876221</ele><time>2008-09-08T21:35:22Z</time></trkpt>
<trkpt lat="46.19254823" lon="6.99783746"><ele>1140.873901</ele><time>2008-09-08T21:35:22Z</time></trkpt>
<trkpt lat="46.19417519" lon="6.99635736"><ele>1131.871216</ele><time>2008-09-08T21:35:22Z</time></trkpt>
<trkpt lat="46.19515648" lon="6.99532115"><ele>1134.869751</ele><time>2008-09-08T21:35:22Z</time></trkpt>
<trkpt lat="46.19590485" lon="6.99497230"><ele>1126.868164</ele><time>2008-09-08T21:35:22Z</time></trkpt>
<trkpt lat="46.19699097" lon="6.99456926"><ele>1114.865967</ele><time>2008-09-08T21:35:22Z</time></trkpt>
<trkpt lat="46.19756391" lon="6.99319356"><ele>1109.865723</ele><time>2008-09-08T21:35:22Z</time></trkpt>
<trkpt lat="46.19844400" lon="6.99245283"><ele>1093.864136</ele><time>2008-09-08T21:35:22Z</time></trkpt>
<trkpt lat="46.19888533" lon="6.99210644"><ele>1089.863403</ele><time>2008-09-08T21:35:22Z</time></trkpt>
<trkpt lat="46.19942428" lon="6.99116969"><ele>1087.862915</ele><time>2008-09-08T21:35:22Z</time></trkpt>
<trkpt lat="46.19979487" lon="6.98979556"><ele>1086.863037</ele><time>2008-09-08T21:35:22Z</time></trkpt>
<trkpt lat="46.19999366" lon="6.98891300"><ele>1063.863281</ele><time>2008-09-08T21:35:22Z</time></trkpt>
<trkpt lat="46.19986287" lon="6.99013777"><ele>1076.862671</ele><time>2008-09-08T21:35:22Z</time></trkpt>
<trkpt lat="46.20003599" lon="6.99057851"><ele>1066.861816</ele><time>2008-09-08T21:35:22Z</time></trkpt>
<trkpt lat="46.20051238" lon="6.99067056"><ele>1053.860596</ele><time>2008-09-08T21:35:22Z</time></trkpt>
<trkpt lat="46.20057805" lon="6.99042664"><ele>1048.860718</ele><time>2008-09-08T21:35:22Z</time></trkpt>
<trkpt lat="46.20054337" lon="6.99008416"><ele>1047.861084</ele><time>2008-09-08T21:35:22Z</time></trkpt>
<trkpt lat="46.20054219" lon="6.98978938"><ele>1040.861328</ele><time>2008-09-08T21:35:22Z</time></trkpt>
<trkpt lat="46.20057277" lon="6.98910357"><ele>997.861755</ele><time>2008-09-08T21:35:22Z</time></trkpt>
<trkpt lat="46.20070727" lon="6.98881110"><ele>968.861694</ele><time>2008-09-08T21:35:22Z</time></trkpt>
<trkpt lat="46.20101448" lon="6.98885654"><ele>945.860901</ele><time>2008-09-08T21:35:22Z</time></trkpt>
<trkpt lat="46.20146244" lon="6.99017596"><ele>943.858765</ele><time>2008-09-08T21:35:22Z</time></trkpt>
<trkpt lat="46.20160004" lon="6.99066157"><ele>941.858032</ele><time>2008-09-08T21:35:22Z</time></trkpt>
<trkpt lat="46.20177078" lon="6.99110235"><ele>936.8573</ele><time>2008-09-08T21:35:22Z</time></trkpt>
<trkpt lat="46.20208169" lon="6.99208015"><ele>923.855713</ele><time>2008-09-08T21:35:22Z</time></trkpt>
<trkpt lat="46.20218500" lon="6.99232267"><ele>922.855286</ele><time>2008-09-08T21:35:22Z</time></trkpt>
<trkpt lat="46.20249294" lon="6.99315311"><ele>918.853882</ele><time>2008-09-08T21:35:22Z</time></trkpt>
<trkpt lat="46.20266565" lon="6.99349448"><ele>899.85321</ele><time>2008-09-08T21:35:22Z</time></trkpt>
<trkpt lat="46.20272919" lon="6.99270897"><ele>885.853699</ele><time>2008-09-08T21:35:22Z</time></trkpt>
<trkpt lat="46.20272783" lon="6.99236620"><ele>875.853943</ele><time>2008-09-08T21:35:22Z</time></trkpt>
<trkpt lat="46.20323890" lon="6.99280419"><ele>846.852356</ele><time>2008-09-08T21:35:22Z</time></trkpt>
<trkpt lat="46.20375215" lon="6.99319076"><ele>802.85083</ele><time>2008-09-08T21:35:22Z</time></trkpt>
<trkpt lat="46.20412620" lon="6.99328710"><ele>779.849854</ele><time>2008-09-08T21:35:22Z</time></trkpt>
<trkpt lat="46.20412485" lon="6.99294431"><ele>767.850159</ele><time>2008-09-08T21:35:22Z</time></trkpt>
<trkpt lat="46.20405407" lon="6.99250269"><ele>763.850647</ele><time>2008-09-08T21:35:22Z</time></trkpt>
<trkpt lat="46.20402037" lon="6.99240698"><ele>764.85083</ele><time>2008-09-08T21:35:22Z</time></trkpt>
<trkpt lat="46.20398628" lon="6.99221187"><ele>764.851074</ele><time>2008-09-08T21:35:22Z</time></trkpt>
<trkpt lat="46.20422388" lon="6.99211050"><ele>741.850586</ele><time>2008-09-08T21:35:22Z</time></trkpt>
<trkpt lat="46.20470319" lon="6.99293956"><ele>719.848755</ele><time>2008-09-08T21:35:22Z</time></trkpt>
<trkpt lat="46.20484156" lon="6.99362403"><ele>744.847839</ele><time>2008-09-08T21:35:22Z</time></trkpt>
<trkpt lat="46.20518074" lon="6.99332643"><ele>692.84729</ele><time>2008-09-08T21:35:22Z</time></trkpt>
<trkpt lat="46.20560279" lon="6.99322355"><ele>650.846375</ele><time>2008-09-08T21:35:22Z</time></trkpt>
<trkpt lat="46.20597822" lon="6.99336617"><ele>645.845337</ele><time>2008-09-08T21:35:22Z</time></trkpt>
<trkpt lat="46.20611660" lon="6.99374898"><ele>662.844727</ele><time>2008-09-08T21:35:22Z</time></trkpt>
<trkpt lat="46.20591708" lon="6.99415513"><ele>680.844849</ele><time>2008-09-08T21:35:22Z</time></trkpt>
<trkpt lat="46.20553427" lon="6.99425254"><ele>706.845703</ele><time>2008-09-08T21:35:22Z</time></trkpt>
<trkpt lat="46.20568659" lon="6.99425129"><ele>689.845337</ele><time>2008-09-08T21:35:22Z</time></trkpt>
<trkpt lat="46.20601031" lon="6.99425892"><ele>669.844543</ele><time>2008-09-08T21:35:22Z</time></trkpt>
<trkpt lat="46.20629255" lon="6.99430803"><ele>648.843811</ele><time>2008-09-08T21:35:22Z</time></trkpt>
<trkpt lat="46.20630740" lon="6.99445360"><ele>641.843689</ele><time>2008-09-08T21:35:22Z</time></trkpt>
<trkpt lat="46.20599783" lon="6.99471667"><ele>638.844177</ele><time>2008-09-08T21:35:22Z</time></trkpt>
<trkpt lat="46.20570356" lon="6.99493675"><ele>624.844727</ele><time>2008-09-08T21:35:22Z</time></trkpt>
<trkpt lat="46.20554475" lon="6.99510431"><ele>602.844971</ele><time>2008-09-08T21:35:22Z</time></trkpt>
<trkpt lat="46.20574693" lon="6.99507181"><ele>608.844543</ele><time>2008-09-08T21:35:22Z</time></trkpt>
<trkpt lat="46.20604288" lon="6.99497512"><ele>616.843872</ele><time>2008-09-08T21:35:22Z</time></trkpt>
<trkpt lat="46.20635220" lon="6.99495202"><ele>610.84314</ele><time>2008-09-08T21:35:22Z</time></trkpt>
<trkpt lat="46.20653324" lon="6.99499168"><ele>601.842712</ele><time>2008-09-08T21:35:22Z</time></trkpt>
<trkpt lat="46.20639002" lon="6.99549163"><ele>573.842651</ele><time>2008-09-08T21:35:22Z</time></trkpt>
<trkpt lat="46.20592932" lon="6.99545426"><ele>576.84375</ele><time>2008-09-08T21:35:22Z</time></trkpt>
<trkpt lat="46.20597289" lon="6.99564073"><ele>557.843506</ele><time>2008-09-08T21:35:22Z</time></trkpt>
<trkpt lat="46.20670065" lon="6.99549938"><ele>566.841858</ele><time>2008-09-08T21:35:22Z</time></trkpt>
<trkpt lat="46.20682319" lon="6.99548810"><ele>563.841614</ele><time>2008-09-08T21:35:22Z</time></trkpt>
<trkpt lat="46.20657167" lon="6.99568727"><ele>557.842041</ele><time>2008-09-08T21:35:22Z</time></trkpt>
<trkpt lat="46.20651406" lon="6.99586600"><ele>551.842041</ele><time>2008-09-08T21:35:22Z</time></trkpt>
<trkpt lat="46.20632143" lon="6.99621038"><ele>543.842224</ele><time>2008-09-08T21:35:22Z</time></trkpt>
<trkpt lat="46.20610603" lon="6.99651209"><ele>532.842468</ele><time>2008-09-08T21:35:22Z</time></trkpt>
<trkpt lat="46.20589903" lon="6.99713768"><ele>523.842468</ele><time>2008-09-08T21:35:22Z</time></trkpt>
<trkpt lat="46.20581615" lon="6.99785482"><ele>519.842102</ele><time>2008-09-08T21:35:22Z</time></trkpt>
<trkpt lat="46.20589611" lon="6.99821755"><ele>517.841614</ele><time>2008-09-08T21:35:22Z</time></trkpt>
<trkpt lat="46.20605797" lon="6.99882986"><ele>513.840698</ele><time>2008-09-08T21:35:22Z</time></trkpt>
<trkpt lat="46.20671219" lon="7.00027808"><ele>504.837982</ele><time>2008-09-08T21:35:22Z</time></trkpt>
<trkpt lat="46.20818133" lon="7.00319563"><ele>488.832062</ele><time>2008-09-08T21:35:22Z</time></trkpt>
<trkpt lat="46.21247030" lon="7.00104587"><ele>482.823517</ele><time>2008-09-08T21:35:22Z</time></trkpt>
<trkpt lat="46.21261922" lon="7.00262177"><ele>475.821899</ele><time>2008-09-08T21:35:22Z</time></trkpt>
<trkpt lat="46.21709171" lon="7.00207155"><ele>472.811584</ele><time>2008-09-08T21:35:22Z</time></trkpt>
<trkpt lat="46.21726481" lon="7.00375026"><ele>466.809814</ele><time>2008-09-08T21:35:22Z</time></trkpt>
<trkpt lat="46.21802669" lon="7.00381273"><ele>467.807922</ele><time>2008-09-08T21:35:22Z</time></trkpt>
<trkpt lat="46.22081320" lon="7.00427048"><ele>477.800873</ele><time>2008-09-08T21:35:22Z</time></trkpt>
<trkpt lat="46.22171867" lon="7.00453756"><ele>468.798462</ele><time>2008-09-08T21:35:22Z</time></trkpt>
<trkpt lat="46.22342635" lon="7.00298078"><ele>475.795624</ele><time>2008-09-08T21:35:22Z</time></trkpt>
<trkpt lat="46.22515980" lon="7.00193809"><ele>466.792297</ele><time>2008-09-08T21:35:22Z</time></trkpt>
<trkpt lat="46.22541829" lon="7.00107869"><ele>494.792389</ele><time>2008-09-08T21:35:22Z</time></trkpt>
<trkpt lat="46.22715319" lon="7.00041312"><ele>482.788757</ele><time>2008-09-08T21:35:22Z</time></trkpt>
<trkpt lat="46.22848588" lon="7.00036807"><ele>497.785583</ele><time>2008-09-08T21:35:22Z</time></trkpt>
<trkpt lat="46.22983917" lon="6.99949974"><ele>466.78302</ele><time>2008-09-08T21:35:22Z</time></trkpt>
<trkpt lat="46.23090644" lon="6.99853081"><ele>461.78125</ele><time>2008-09-08T21:35:22Z</time></trkpt>
<trkpt lat="46.23289534" lon="6.99587376"><ele>459.778625</ele><time>2008-09-08T21:35:22Z</time></trkpt>
<trkpt lat="46.23434420" lon="6.99510737"><ele>455.775757</ele><time>2008-09-08T21:35:22Z</time></trkpt>
<trkpt lat="46.23601455" lon="6.99619131"><ele>451.770844</ele><time>2008-09-08T21:35:22Z</time></trkpt>
<trkpt lat="46.23622821" lon="6.99605237"><ele>451.770447</ele><time>2008-09-08T21:35:22Z</time></trkpt>
<trkpt lat="46.23715400" lon="6.99542742"><ele>450.768738</ele><time>2008-09-08T21:35:22Z</time></trkpt>
<trkpt lat="46.23943237" lon="6.99376233"><ele>449.764587</ele><time>2008-09-08T21:35:22Z</time></trkpt>
<trkpt lat="46.24286834" lon="6.98992642"><ele>449.75943</ele><time>2008-09-08T21:35:22Z</time></trkpt>
<trkpt lat="46.24423572" lon="6.99262520"><ele>451.753937</ele><time>2008-09-08T21:35:22Z</time></trkpt>
<trkpt lat="46.24501408" lon="6.99687267"><ele>454.748627</ele><time>2008-09-08T21:35:22Z</time></trkpt>
<trkpt lat="46.24762347" lon="7.00690339"><ele>467.734192</ele><time>2008-09-08T21:35:22Z</time></trkpt>
<trkpt lat="46.24638874" lon="7.00766794"><ele>471.736542</ele><time>2008-09-08T21:35:22Z</time></trkpt>
<trkpt lat="46.24591770" lon="7.00897531"><ele>474.736633</ele><time>2008-09-08T21:35:22Z</time></trkpt>
<trkpt lat="46.24626328" lon="7.01223166"><ele>481.733124</ele><time>2008-09-08T21:35:22Z</time></trkpt>
<trkpt lat="46.24595789" lon="7.01329754"><ele>483.733002</ele><time>2008-09-08T21:35:22Z</time></trkpt>
</trkseg></trk></gpx>